TimeCDT,TemperatureF,Dew PointF,Humidity,Sea Level PressureIn,VisibilityMPH,Wind Direction,Wind SpeedMPH,Gust SpeedMPH,PrecipitationIn,Events,Conditions,WindDirDegrees,DateUTC
12:53 AM,23.0,19.9,88,30.36,8.0,Calm,Calm,-,N/A,,Clear,0,2014-03-09 06:53:00
1:53 AM,23.0,19.9,88,30.33,7.0,South,4.6,-,N/A,,Clear,190,2014-03-09 07:53:00
3:53 AM,24.1,21.0,88,30.32,5.0,Calm,Calm,-,N/A,,Clear,0,2014-03-09 08:53:00
4:53 AM,21.0,19.0,92,30.29,5.0,South,6.9,-,N/A,,Clear,180,2014-03-09 09:53:00
5:53 AM,21.9,19.0,89,30.30,6.0,South,3.5,-,N/A,,Clear,190,2014-03-09 10:53:00
6:53 AM,24.1,21.0,88,30.30,7.0,SSE,3.5,-,N/A,,Clear,150,2014-03-09 11:53:00
7:53 AM,21.9,19.0,89,30.30,5.0,South,4.6,-,N/A,,Clear,170,2014-03-09 12:53:00
8:53 AM,28.9,24.1,82,30.29,7.0,South,6.9,-,N/A,,Clear,190,2014-03-09 13:53:00
9:53 AM,34.0,26.1,73,30.27,10.0,SSW,13.8,-,N/A,,Clear,210,2014-03-09 14:53:00
10:53 AM,39.0,28.0,65,30.25,10.0,SSW,12.7,-,N/A,,Clear,210,2014-03-09 15:53:00
11:53 AM,45.0,28.0,52,30.21,10.0,SSW,16.1,-,N/A,,Clear,200,2014-03-09 16:53:00
12:53 PM,50.0,28.9,44,30.18,10.0,SSW,17.3,-,N/A,,Clear,210,2014-03-09 17:53:00
1:53 PM,54.0,32.0,43,30.11,10.0,SSW,17.3,26.5,N/A,,Clear,200,2014-03-09 18:53:00
2:53 PM,57.0,30.9,37,30.06,10.0,SSW,24.2,28.8,N/A,,Clear,210,2014-03-09 19:53:00
3:53 PM,60.1,30.9,33,30.01,10.0,SW,23.0,29.9,N/A,,Clear,220,2014-03-09 20:53:00
4:53 PM,61.0,30.0,31,29.97,10.0,SSW,21.9,29.9,N/A,,Clear,210,2014-03-09 21:53:00
5:53 PM,61.0,30.0,31,29.95,10.0,SSW,16.1,25.3,N/A,,Clear,210,2014-03-09 22:53:00
6:53 PM,59.0,28.0,31,29.94,10.0,SW,16.1,-,N/A,,Clear,220,2014-03-09 23:53:00
7:53 PM,52.0,28.0,40,29.96,10.0,SSW,6.9,-,N/A,,Clear,210,2014-03-10 00:53:00
8:53 PM,48.0,28.9,48,29.96,10.0,SSW,10.4,-,N/A,,Clear,210,2014-03-10 01:53:00
9:53 PM,48.0,28.9,48,29.94,10.0,SSW,12.7,-,N/A,,Clear,210,2014-03-10 02:53:00
10:53 PM,46.9,28.9,50,29.94,10.0,SSW,9.2,-,N/A,,Clear,210,2014-03-10 03:53:00
11:53 PM,48.0,30.0,50,29.93,10.0,SSW,12.7,-,N/A,,Clear,200,2014-03-10 04:53:00
12:53 AM,46.9,30.0,52,29.92,10.0,SSW,10.4,-,N/A,,Clear,210,2014-03-10 05:53:00